Location: Ab? ar R?sh Ba?r?
(24.1861°N, 32.8847°E)
Time: 10:42:55
(UTC+00:00)

Cosmos 2056 Rocket - Pass Details

Date: 24 October 2021
Orbit: 741 x 801 km, 74.0° (Epoch: 03 December)

Event Time Altitude Azimuth Distance (km) Brightness Sun altitude
Rises 17:07:45 0° 197° (SSW) 3,192 7.0 -26.4°
Reaches altitude 10° 17:10:07 10° 199° (SSW) 2,263 6.1 -27.0°
Enters shadow 17:15:06 74° 268° (W) 773 3.5 -28.1°
